Weather History for KHCD - November, 2010

Change the Weather History Date:

Friday, November 19, 2010

  Actual Average Record
Temperature  
Mean Temperature 32 °F -  
Max Temperature 36 °F 37 °F 66 °F (2001)
Min Temperature 27 °F 23 °F 0 °F (1986)
Degree Days  
Heating Degree Days 34    
Moisture  
Dew Point 27 °F    
Average Humidity 77    
Maximum Humidity 91    
Minimum Humidity 54    
Precipitation  
Precipitation 0.00 in - - ()
Sea Level Pressure  
Sea Level Pressure 29.88 in    
Wind  
Wind Speed 13 mph (WSW)    
Max Wind Speed 22 mph    
Max Gust Speed 29 mph    
Visibility 9 miles    
Events      
Averages and records for this station are not official NWS values.
T = Trace of Precipitation, MM = Missing Value Source: NWS Daily Summary

Daily Weather History Graph

Daily Weather History Graph

Search for Another Location

Airport or City:

Trip Planner

Search our weather history database for the weather conditions in past years. The results will help you decide how hot, cold, wet, or windy it might be!

Date:

Astronomy

Nov. 19, 2010 Rise Set
Actual Time 7:20 AM CST 4:45 PM CST
Civil Twilight 6:48 AM CST 5:17 PM CST
Nautical Twilight 6:12 AM CST 5:53 PM CST
Astronomical Twilight 5:37 AM CST 6:27 PM CST
Moon 3:17 PM CST (11/19) 5:16 AM CST (11/19)
Length of Visible Light 10h 29m
Length of Day
9h 25m
Waxing Gibbous, 96% of the Moon is Illuminated
Nov 19
Waxing Gibbous
Nov 21
Full
Nov 28
Last Quarter
Dec 5
New
Dec 13
First Quarter

Hourly Weather History & Observations

Time (CST) Temp. Windchill Dew Point Humidity Pressure Visibility Wind Dir Wind Speed Gust Speed Precip Events Conditions
12:12 AM 34.2 °F 24.4 °F 30.9 °F 88% 29.84 in 10.0 mi SE 15.0 mph 23.0 mph N/A   Mostly Cloudy
12:32 AM 34.3 °F 25.0 °F 30.9 °F 87% 29.83 in 10.0 mi SSE 13.8 mph 23.0 mph N/A   Mostly Cloudy
12:52 AM 34.3 °F 25.9 °F 30.9 °F 87% 29.82 in 10.0 mi SE 11.5 mph 18.4 mph N/A   Mostly Cloudy
1:12 AM 34.3 °F 25.9 °F 30.9 °F 87% 29.81 in 10.0 mi SSE 11.5 mph 17.3 mph N/A   Mostly Cloudy
1:32 AM 34.3 °F 25.9 °F 30.9 °F 87% 29.80 in 7.0 mi SSE 11.5 mph 18.4 mph N/A   Scattered Clouds
1:52 AM 34.5 °F 26.2 °F 31.1 °F 87% 29.78 in 7.0 mi SSE 11.5 mph 19.6 mph N/A   Scattered Clouds
2:12 AM 34.5 °F 26.2 °F 31.1 °F 87% 29.77 in 7.0 mi SSE 11.5 mph 20.7 mph N/A   Scattered Clouds
2:32 AM 35.1 °F 26.9 °F 31.8 °F 88% 29.76 in 7.0 mi SSE 11.5 mph 18.4 mph N/A   Scattered Clouds
2:52 AM 35.6 °F 28.6 °F 32.0 °F 87% 29.76 in 7.0 mi SSE 9.2 mph 17.3 mph N/A   Clear
3:12 AM 35.6 °F 28.0 °F 32.0 °F 87% 29.76 in 7.0 mi SSE 10.4 mph 18.4 mph N/A   Scattered Clouds
3:32 AM 35.6 °F 28.0 °F 32.0 °F 87% 29.76 in 7.0 mi SSE 10.4 mph - N/A   Scattered Clouds
3:52 AM 35.6 °F 29.2 °F 32.0 °F 87% 29.75 in 7.0 mi SSE 8.1 mph 16.1 mph N/A   Scattered Clouds
4:12 AM 35.2 °F 27.1 °F 32.0 °F 88% 29.74 in 7.0 mi South 11.5 mph 18.4 mph N/A   Scattered Clouds
4:31 AM 35.1 °F 27.4 °F 32.0 °F 89% 29.74 in 7.0 mi South 10.4 mph 16.1 mph N/A   Clear
4:52 AM 34.3 °F 26.5 °F 31.5 °F 89% 29.74 in 7.0 mi South 10.4 mph 17.3 mph N/A   Clear
5:12 AM 34.3 °F 27.0 °F 31.6 °F 90% 29.74 in 7.0 mi South 9.2 mph - N/A   Clear
5:32 AM 34.3 °F 27.0 °F 31.8 °F 90% 29.74 in 7.0 mi South 9.2 mph - N/A   Clear
5:52 AM 34.3 °F 27.7 °F 32.0 °F 91% 29.75 in 7.0 mi South 8.1 mph - N/A   Clear
6:12 AM 34.3 °F 27.7 °F 32.0 °F 91% 29.75 in 7.0 mi South 8.1 mph - N/A   Clear
6:32 AM 34.3 °F 27.7 °F 32.0 °F 91% 29.76 in 5.0 mi South 8.1 mph - N/A   Clear
6:52 AM 34.3 °F 30.2 °F 32.0 °F 91% 29.76 in 5.0 mi SW 4.6 mph - N/A   Clear
7:12 AM 34.3 °F 30.2 °F 32.0 °F 91% 29.77 in 7.0 mi SSW 4.6 mph - N/A   Clear
7:32 AM 34.3 °F 28.4 °F 32.0 °F 91% 29.78 in 7.0 mi SW 6.9 mph - N/A   Scattered Clouds
7:52 AM 34.3 °F 25.9 °F 32.0 °F 91% 29.79 in 7.0 mi West 11.5 mph - N/A   Scattered Clouds
8:12 AM 35.8 °F 26.5 °F 33.1 °F 90% 29.80 in 7.0 mi West 15.0 mph - N/A   Scattered Clouds
8:32 AM 36.9 °F 28.2 °F 33.8 °F 89% 29.82 in 7.0 mi WNW 13.8 mph 19.6 mph N/A   Scattered Clouds
8:52 AM 36.9 °F 27.8 °F 33.6 °F 88% 29.82 in 7.0 mi NW 15.0 mph - N/A   Scattered Clouds
9:12 AM 36.9 °F 27.5 °F 32.7 °F 85% 29.83 in 7.0 mi NW 16.1 mph 23.0 mph N/A   Mostly Cloudy
9:32 AM 36.9 °F 26.8 °F 32.2 °F 83% 29.84 in 10.0 mi NW 18.4 mph 27.6 mph N/A   Mostly Cloudy
10:12 AM 36.9 °F 28.2 °F 32.0 °F 83% 29.89 in 10.0 mi WNW 13.8 mph 20.7 mph N/A   Mostly Cloudy
10:32 AM 34.3 °F 23.2 °F 29.3 °F 82% 29.90 in 10.0 mi West 19.6 mph - N/A   Scattered Clouds
10:52 AM 34.3 °F 23.5 °F 27.5 °F 76% 29.92 in 10.0 mi West 18.4 mph 21.9 mph N/A   Clear
11:12 AM 34.3 °F 23.5 °F 26.2 °F 72% 29.93 in 10.0 mi WNW 18.4 mph 25.3 mph N/A   Clear
11:32 AM 34.3 °F 22.9 °F 24.4 °F 67% 29.93 in 10.0 mi WNW 20.7 mph 27.6 mph N/A   Clear
11:52 AM 34.3 °F 23.9 °F 23.7 °F 65% 29.93 in 10.0 mi WNW 17.3 mph 24.2 mph N/A   Clear
12:12 PM 34.3 °F 22.6 °F 22.8 °F 63% 29.93 in 10.0 mi WNW 21.9 mph 28.8 mph N/A   Clear
12:32 PM 34.3 °F 24.2 °F 22.5 °F 62% 29.94 in 10.0 mi WNW 16.1 mph 25.3 mph N/A   Clear
12:52 PM 34.3 °F 24.2 °F 23.5 °F 65% 29.95 in 10.0 mi WNW 16.1 mph 26.5 mph N/A   Clear
1:12 PM 34.3 °F 23.5 °F 22.1 °F 61% 29.96 in 10.0 mi NW 18.4 mph 25.3 mph N/A   Clear
1:32 PM 34.3 °F 23.9 °F 21.4 °F 59% 29.97 in 10.0 mi WNW 17.3 mph 21.9 mph N/A   Clear
1:52 PM 34.5 °F 25.7 °F 21.7 °F 60% 29.98 in 10.0 mi WNW 12.7 mph 20.7 mph N/A   Clear
2:12 PM 34.3 °F 22.9 °F 19.4 °F 54% 29.98 in 10.0 mi WNW 20.7 mph 26.5 mph N/A   Clear
2:32 PM 34.3 °F 23.9 °F 19.9 °F 56% 29.99 in 10.0 mi WNW 17.3 mph 23.0 mph N/A   Clear
2:52 PM 34.3 °F 22.9 °F 19.8 °F 55% 30.01 in 10.0 mi NW 20.7 mph 25.3 mph N/A   Clear
3:11 PM 32.2 °F 22.7 °F 18.7 °F 58% 30.01 in 10.0 mi WNW 12.7 mph - N/A   Clear
3:32 PM 32.0 °F 22.5 °F 18.7 °F 58% 30.02 in 10.0 mi WNW 12.7 mph 23.0 mph N/A   Clear
3:52 PM 30.6 °F 19.0 °F 16.2 °F 55% 30.03 in 10.0 mi NW 17.3 mph 24.2 mph N/A   Clear
4:12 PM 29.7 °F 19.1 °F 16.7 °F 59% 30.05 in 10.0 mi WNW 13.8 mph 21.9 mph N/A   Clear
4:32 PM 29.7 °F 19.6 °F 17.1 °F 59% 30.06 in 10.0 mi WNW 12.7 mph 18.4 mph N/A   Clear
4:52 PM 29.7 °F 20.7 °F 16.7 °F 59% 30.08 in 10.0 mi WNW 10.4 mph - N/A   Clear
5:12 PM 29.7 °F 18.6 °F 17.6 °F 61% 30.08 in 10.0 mi WNW 15.0 mph 21.9 mph N/A   Clear
5:32 PM 29.5 °F 20.4 °F 18.5 °F 64% 30.09 in 10.0 mi West 10.4 mph - N/A   Clear
5:52 PM 27.1 °F 18.2 °F 16.2 °F 63% 30.10 in 10.0 mi WNW 9.2 mph - N/A   Clear
6:12 PM 27.1 °F 16.9 °F 16.9 °F 65% 30.13 in 10.0 mi West 11.5 mph - N/A   Clear
6:52 PM 27.1 °F 16.9 °F 17.1 °F 66% 30.14 in 10.0 mi WNW 11.5 mph - N/A   Clear
7:12 PM 25.7 °F 15.7 °F 15.3 °F 65% 30.14 in 10.0 mi WNW 10.4 mph 16.1 mph N/A   Clear
7:32 PM 24.8 °F 14.6 °F 13.8 °F 63% 30.14 in 10.0 mi WNW 10.4 mph - N/A   Clear
7:52 PM 24.6 °F 13.8 °F 15.4 °F 68% 30.15 in 10.0 mi WNW 11.5 mph - N/A   Clear
8:12 PM 24.6 °F 15.1 °F 15.8 °F 69% 30.16 in 10.0 mi WNW 9.2 mph - N/A   Clear
8:32 PM 23.5 °F 14.5 °F 14.5 °F 69% 30.17 in 10.0 mi West 8.1 mph - N/A   Clear
8:52 PM 23.4 °F 13.5 °F 14.5 °F 69% 30.18 in 10.0 mi WNW 9.2 mph - N/A   Clear
9:12 PM 23.0 °F 13.9 °F 14.0 °F 68% 30.18 in 10.0 mi WNW 8.1 mph - N/A   Clear
9:32 PM 22.8 °F 13.6 °F 14.0 °F 69% 30.19 in 10.0 mi West 8.1 mph - N/A   Clear
9:52 PM 22.1 °F 13.7 °F 14.4 °F 72% 30.21 in 10.0 mi West 6.9 mph - N/A   Clear
10:12 PM 22.1 °F 12.8 °F 14.9 °F 74% 30.21 in 10.0 mi West 8.1 mph - N/A   Clear
10:31 PM 22.1 °F 12.0 °F 14.0 °F 71% 30.24 in 10.0 mi West 9.2 mph - N/A   Clear
10:52 PM 22.1 °F 11.3 °F 13.5 °F 69% 30.23 in 10.0 mi WNW 10.4 mph - N/A   Clear
11:12 PM 22.1 °F 11.3 °F 14.0 °F 71% 30.24 in 10.0 mi WNW 10.4 mph - N/A   Clear
11:32 PM 21.2 °F 10.9 °F 13.5 °F 72% 30.23 in 10.0 mi NW 9.2 mph - N/A   Clear
11:52 PM 20.8 °F 12.1 °F 14.0 °F 75% 30.25 in 10.0 mi NW 6.9 mph - N/A   Clear